Regional Weather Roundup
Issued by NWS Charleston, SC

Current Version | Previous Version | Graphics & Text | Print | Product List | Glossary On
Versions: 1 2 3 4 5 6 7 8 9 10 11 12 13 14 15 16 17 18 19 20 21 22 23 24 25 26 27 28 29 30 31 32 33 34 35 36 37 38 39 40 41 42 43 44 45 46 47 48 49 50
286
ASUS42 KCHS 250027
RWRCHS

REGIONAL WEATHER ROUNDUP
NATIONAL WEATHER SERVICE CHARLESTON SC
800 PM EDT MON JUL 24 2017

NOTE: "FAIR" INDICATES FEW OR NO CLOUDS BELOW 12,000 FEET WITH NO
SIGNIFICANT WEATHER AND/OR OBSTRUCTIONS TO VISIBILITY.

NOT ALL STATIONS ARE QUALITY CONTROLLED. USE DATA WITH CAUTION...
ESPECIALLY DEWPOINT OBSERVATIONS.

SCZ027-030-031-034>040-042>050-250100-
...SOUTHEAST SOUTH CAROLINA...

CITY           SKY/WX    TMP DP  RH WIND       PRES   REMARKS
N CHARLESTON   TSTM      73  71  93 W14G20    30.02R VSB 1
6HR MIN TEMP:  76; 6HR MAX TEMP:  88; 6HR PCP: TRACE;

WATERFRONT PRK   N/A     83  79  87 SW9       29.96R HX  94
JOHNS ISLAND   FAIR      82  79  89 SW8       30.01R HX  93
PINOPOLIS        N/A      7 -17  33 MISG        N/A
MONCKS CORNER  TSTM      73  72  94 SW3       30.00S
SUMMERVILLE    FAIR      73  70  88 CALM      30.01R THUNDER
BEAUFORT MCAS  TSTM      75  74  96 W26G38    30.01R VSB 1/4
6HR MIN TEMP:  78; 6HR MAX TEMP:  92; 6HR PCP:  0.75;

BEAUFORT ARPT  MOCLDY    82  77  83 SW7G17    29.99R THUNDER HX  91
HILTON HEAD IS CLEAR     84  79  84 S10G18    30.00R HX  96
WALTERBORO     CLOUDY    75  73  94 S3        29.99R
ALLENDALE      NOT AVBL

...SOUTHERN MIDLANDS AND PEE DEE...

CITY           SKY/WX    TMP DP  RH WIND       PRES   REMARKS
GEORGETOWN     FAIR      79  79 100 W13       30.01R
KINGSTREE      TSTM      73  72  94 CALM      29.98S
ORANGEBURG     CLOUDY    73  71  93 CALM      29.97F
6HR MIN TEMP:  73; 6HR MAX TEMP:  91;

BARNWELL       FAIR      77  75  94 NE3       29.98R
AIKEN          FAIR      75  73  94 W5        30.01F
MANNING        LGT RAIN  73  73 100 NW9       29.98F
COLUMBIA       MOCLDY    79  73  82 SW5       29.97R
6HR MIN TEMP:  76; 6HR MAX TEMP:  92; 6HR PCP:  0.32;

SUMTER         MOCLDY    75  73  91 S6        29.95F
6HR MIN TEMP:  75; 6HR MAX TEMP:  89; 6HR PCP:  0.05;

FLORENCE       CLOUDY    76  72  87 W7        29.97S
6HR MIN TEMP:  76; 6HR MAX TEMP:  86; 6HR PCP: TRACE;

MYRTLE BEACH   PTCLDY    81  75  83 N14       30.00R
N MYRTLE BEACH CLOUDY    77  72  84 NW9G20    29.99R THUNDER
6HR MIN TEMP:  78; 6HR MAX TEMP:  89;


$$

GAZ063-065-086>088-099>101-113>116-118-119-134>141-150-250100-
...SOUTHEAST GEORGIA...

CITY           SKY/WX    TMP DP  RH WIND       PRES   REMARKS
SAVANNAH ARPT  MOCLDY    77  73  87 NW7       29.98R THUNDER
6HR MIN TEMP:  77; 6HR MAX TEMP:  93; 6HR PCP:  0.27;

HUNTER AAF     TSTM      77  75  94 SE7       29.97R
                                      6HR PCP:  0.06;

FORT STEWART   CLOUDY    78  74  89 SE6       29.97R THUNDER
6HR MIN TEMP:  78; 6HR MAX TEMP:  93; 6HR PCP:  0.06;

STATESBORO     MOCLDY    83  75  75 S3        29.98R HX  90
SYLVANIA       CLOUDY    80  78  94 CALM      29.99R
CLAXTON        FAIR      81  77  86 CALM      29.97R

...CSRA...CENTRAL AND FAR SOUTHEAST GEORGIA...

CITY           SKY/WX    TMP DP  RH WIND       PRES   REMARKS
THOMSON        CLOUDY    76  72  88 CALM      30.03R
AUGUSTA-BUSH   LGT RAIN  79  73  82 W5        29.95F
6HR MIN TEMP:  76; 6HR MAX TEMP:  94; 6HR PCP:  0.12;

AUGUSTA-DANIEL CLOUDY    77  70  79 SW5       29.98S
SWAINSBORO     FAIR      77  72  83 CALM      29.99R
VIDALIA        PTCLDY    82  73  74 S3        29.99R
EASTMAN        MOCLDY    82  65  55 E3        30.01R
HAZLEHURST     LGT RAIN  83  81  93 S3        29.97S HX  97
ALMA           CLOUDY    81  76  84 S7        29.99R
6HR MIN TEMP:  77; 6HR MAX TEMP:  93; 6HR PCP:  1.24;

WAYCROSS       CLOUDY    85  80  87 CALM      30.00S HX  99
JESUP          NOT AVBL
BAXLEY         CLOUDY    81  81 100 S8        29.99R THUNDER HX  91
BRUNSWICK      PTCLDY    79  77  94 S5        30.01S
SAINT SIMONS   LGT RAIN  79  76  90 S3        30.00S
6HR MIN TEMP:  78; 6HR MAX TEMP:  92; 6HR PCP:  0.25;


$$

SCZ027-028-034-036>038-045-046-048>050-GAZ119-141-250100-
...LAKE AND SUPPLEMENTAL COASTAL OBSERVATIONS...

STATION/POSITION TIME  TEMP    WIND        PRES    WAVE   SWELL
                       AIR SEA DIR/SP/G            HT/PER HT/PER/DIR
                 (UTC) (F)     (DEG/KT/KT) (MB)    (FT/S) (FT/S/D)
WINYAH BAY       2330   82     230/  9     1015.0R
LAKE MURRAY      NOT AVBL
ACE BASIN NERRS  2345   83        CALM     1015.0R
FORT PULASKI     0000   83 85  210/ 11/ 17 1015.5
SAPELO ISLAND    0000   78     180/  2     1016.0

$$

ANZ835-935-AMZ111-154-330-350-352-354-370-450-454-472-250100-
...C-MAN AND BUOY OBSERVATIONS...

STATION/POSITION TIME  TEMP    WIND        PRES    WAVE   SWELL
                       AIR SEA DIR/SP/G            HT/PER HT/PER/DIR
                 (UTC) (F)     (DEG/KT/KT) (MB)    (FT/S) (FT/S/D)
BUOY 41004       0000   83 83  220/ 17/ 21 1015.0
BUOY 41008       2350   82 81  200/ 19/ 23 1015.2R   3/ 4   2/120/ 8
FOLLY BEACH CMAN 0000   83     210/ 17/ 19 1016.4R
CAPERS NEARSHORE 0008   81 84  230/ 17/ 23 1015.1R
FRIPP NEARSHORE  0008   83 84  210/ 17/ 23 1014.8R


STATION/POSITION TIME  TEMP    WIND        PRES    WAVE   SWELL
                       AIR SEA DIR/SP/G            HT/PER HT/PER/DIR
                 (UTC) (F)     (DEG/KT/KT) (MB)    (FT/S) (FT/S/D)
5E ST. MARYS GA  0000      79                N/A     3/ 9
FRYING PAN BUOY  0010   83 82  230/ 17/ 21 1015.3
BUOY 41025       2350   83 84  230/ 19/ 23 1013.0R   6/ 7
CAPE LOOKOUT NC  0000   81     220/ 11/ 15 1013.7R
BUOY 41002       2350   82 83  200/ 10/ 12 1018.0R   5/ 6   5/230/ 6
BUOY 41010       0010   84 85  170/ 10/ 14 1017.5
ST AUGUSTINE FL  0000   85 74  220/  8/ 10 1017.0R


$$




USA.gov is the U.S. government's official web portal to all federal, state and local government web resources and services.